Theta_e
280 279 279 279 279 279 278 278 278 278 278 278 278 277 277 277 277 277 277 277 277 277 277 277 277 277 278 278 278 278 278 277 278 278 278 280 281 281 281 282 282 282
279 279 279 279 278 278 278 278 278 278 277 277 277 277 277 277 277 277 277 277 277 277 277 277 277 277 277 277 277 277 277 277 277 278 278 279 281 281 281 281 281 281
279 279 279 278 278 278 278 278 278 278 277 277 277 277 277 277 277 277 277 277 277 277 277 277 277 277 277 277 277 277 277 277 277 278 278 280 280 280 280 281 281 281
279 278 278 278 278 278 278 278 278 277 277 277 277 277 277 277 277 277 277 277 277 276 276 276 276 276 276 276 276 276 276 277 277 277 278 279 280 280 280 280 280 280
278 278 278 278 278 278 278 278 277 277 277 277 277 277 277 277 277 276 276 276 276 276 275 275 275 275 275 275 275 276 276 276 276 277 278 279 279 279 279 279 279 279
278 278 278 278 278 278 278 277 277 277 277 277 277 277 277 276 276 276 276 276 275 275 275 275 275 275 275 275 275 275 275 276 276 277 278 278 278 278 278 278 278 279
278 278 278 278 278 278 277 277 277 276 276 276 276 276 276 276 276 276 275 275 275 275 275 274 274 274 274 274 274 275 275 276 276 277 278 278 278 278 278 278 278 278
278 278 278 277 277 277 277 277 276 276 276 276 276 276 276 276 275 275 275 275 275 274 274 274 274 274 274 274 274 274 275 276 277 277 277 277 277 277 277 277 277 277
278 277 277 277 277 277 277 276 276 276 276 276 276 276 276 275 275 275 275 274 274 274 274 274 274 273 273 273 274 274 275 276 276 277 277 277 277 277 277 277 277 277
277 277 277 277 277 277 276 276 276 276 276 276 275 275 275 275 275 275 275 274 274 274 273 273 273 273 273 273 274 274 275 276 276 276 276 276 276 276 276 276 276 276
277 277 277 277 277 277 276 276 276 276 275 275 275 275 275 275 275 274 274 274 273 273 273 273 273 272 272 273 274 275 275 275 276 275 275 276 276 276 276 276 276 276
277 277 277 277 277 277 276 276 276 275 275 275 275 275 275 275 274 274 273 273 273 273 273 272 272 272 272 273 274 275 275 275 275 275 275 275 275 275 275 275 275 275
277 277 277 277 276 276 276 276 275 275 275 275 275 275 275 274 274 273 273 272 272 272 272 272 272 272 272 273 274 275 275 275 275 275 275 275 275 275 275 275 275 275
277 277 277 277 276 276 276 275 275 275 275 275 275 275 274 274 273 273 272 272 272 272 272 272 272 272 272 273 274 274 274 274 274 274 274 274 274 274 274 274 274 274
277 277 277 277 276 276 276 275 275 275 275 275 275 274 274 273 273 272 272 272 272 272 272 272 272 271 271 272 274 274 274 274 274 274 274 274 274 274 274 274 274 274
277 277 277 277 276 276 275 274 274 275 275 275 275 274 274 273 273 272 272 272 272 272 272 272 271 271 271 272 273 274 274 274 274 274 274 274 274 274 273 273 273 273
277 277 277 276 276 275 274 274 275 275 275 275 274 274 273 273 272 272 272 272 272 272 272 271 271 271 271 271 272 273 274 274 274 274 274 274 273 273 273 273 273 273
277 277 276 276 276 275 274 275 275 275 275 275 274 274 273 273 272 272 272 272 272 272 271 271 271 271 271 271 272 273 273 274 274 273 273 273 273 272 273 273 273 272
277 277 276 276 276 275 274 275 275 274 275 274 274 274 273 273 272 272 272 272 272 271 271 271 270 270 270 271 271 272 273 273 273 273 272 272 272 272 272 272 272 272
277 277 277 277 276 275 274 274 274 274 275 274 274 274 273 273 272 272 272 271 271 271 271 270 270 270 270 270 271 272 272 272 272 272 271 272 272 272 272 272 272 272
277 277 277 276 275 274 274 274 274 275 275 275 274 274 273 273 272 272 271 271 271 271 271 270 270 270 269 269 270 271 271 272 271 271 271 271 271 271 271 271 271 271
277 277 277 276 275 274 274 274 275 275 275 275 274 274 273 273 272 272 271 271 271 271 271 270 270 269 269 269 269 270 271 271 271 271 271 271 271 271 271 271 271 271
278 277 277 276 275 274 274 274 275 276 276 275 274 274 273 273 272 272 271 271 271 270 270 270 270 269 269 269 268 269 270 270 270 271 271 271 271 271 271 271 271 271
278 278 277 276 275 274 274 275 276 276 276 275 274 273 273 273 272 272 271 271 270 270 270 270 269 269 269 269 268 268 269 270 270 270 270 270 270 270 270 270 270 270
278 278 277 276 275 275 275 276 276 276 276 275 274 273 272 272 272 271 271 270 270 270 269 269 269 269 269 268 268 268 269 269 270 270 270 270 270 270 270 270 270 270
278 278 277 276 276 275 276 276 277 276 275 274 273 273 272 272 272 271 270 270 269 269 269 269 268 268 268 268 268 268 268 269 269 269 270 270 270 270 270 270 270 270
Wind_Speed
23 23 23 22 22 21 20 20 19 19 17 15 15 15 16 15 15 15 15 15 15 15 15 15 15 14 14 13 12 12 11 11 11 11 11 9 8 9 10 10 9 9
22 22 22 21 21 20 19 19 18 18 17 16 15 15 14 14 14 14 14 14 14 14 14 14 13 12 12 11 11 11 11 11 11 11 11 9 8 9 9 9 9 9
20 20 20 20 19 18 18 17 17 16 16 15 14 13 13 13 13 13 13 13 12 12 12 11 11 10 10 11 11 10 10 11 10 10 9 8 8 8 9 9 9 9
18 18 18 18 17 17 16 15 15 14 14 13 12 12 12 12 12 12 11 11 11 10 10 10 10 10 10 11 10 9 8 9 9 9 8 7 7 8 9 9 9 10
17 16 16 16 15 15 14 13 13 12 12 11 11 11 11 11 11 10 10 10 10 9 9 9 10 10 11 11 10 9 9 8 9 10 9 8 8 8 9 9 10 10
15 15 14 14 13 13 12 12 11 11 10 10 10 10 10 10 10 9 9 9 9 9 9 10 10 10 11 11 10 10 10 9 9 9 8 8 8 9 9 9 9 10
14 14 13 12 12 11 11 10 10 9 9 8 9 8 9 9 9 8 8 8 8 9 9 10 10 10 11 12 12 11 10 8 8 8 8 8 8 9 9 9 9 10
13 13 12 11 11 10 10 9 9 8 7 7 8 8 8 8 8 7 8 8 9 9 9 9 10 11 11 12 12 11 9 7 7 8 8 9 9 10 10 10 10 11
13 12 11 11 10 9 9 8 7 7 6 6 7 7 7 7 7 7 7 8 8 9 9 10 10 10 11 11 11 9 8 7 7 8 8 9 10 10 11 11 11 12
13 12 11 10 10 9 8 7 6 6 5 6 6 6 6 6 6 6 6 7 8 8 9 9 10 10 10 10 9 8 7 7 8 8 9 10 10 11 11 12 12 12
13 12 11 10 9 8 7 6 5 5 5 5 4 4 4 5 5 5 6 7 7 7 8 9 10 11 11 10 8 7 6 7 7 9 9 10 10 10 11 11 11 12
13 12 11 9 8 7 6 5 5 4 3 2 2 2 3 4 4 5 5 5 6 7 9 10 10 11 11 10 7 7 7 7 8 8 9 9 9 10 10 11 11 12
13 12 11 10 9 8 7 6 4 4 3 1 0 2 3 3 4 4 4 5 6 8 9 10 11 11 10 8 7 7 7 8 9 8 9 9 9 10 10 11 11 12
15 13 12 11 10 9 7 6 5 5 3 2 0 1 3 3 4 4 4 5 7 9 10 10 11 11 9 8 7 8 8 9 9 9 9 10 10 10 11 11 11 12
16 15 13 12 11 10 9 8 7 6 4 2 0 2 3 4 4 4 5 5 7 9 10 10 10 10 9 8 8 9 9 9 9 9 10 10 10 11 11 11 12 12
18 16 14 13 12 11 10 10 9 7 4 2 0 2 3 4 4 4 5 6 7 8 9 10 10 9 8 8 8 10 10 9 10 10 10 9 11 12 12 12 12 12
19 17 16 15 14 13 12 11 10 7 4 2 0 1 3 3 4 4 5 6 7 8 9 10 9 9 8 8 9 10 10 10 11 10 9 10 10 11 12 12 12 12
20 19 19 17 15 13 13 12 11 7 5 3 1 1 3 3 4 5 6 7 8 9 9 9 9 9 9 8 10 11 11 11 11 9 9 10 10 11 12 12 12 13
22 21 20 18 15 14 15 14 12 8 5 3 2 2 3 4 5 5 6 7 8 9 9 9 10 10 9 9 10 11 11 12 10 8 9 10 11 11 12 12 13 13
25 23 21 19 17 16 17 16 13 9 5 3 3 3 4 4 5 6 6 7 8 9 10 10 10 10 10 9 10 11 12 12 9 8 9 11 11 12 12 13 14 14
26 24 22 20 19 18 19 17 13 9 5 3 4 4 5 5 5 6 6 7 8 9 10 11 11 11 10 9 10 11 12 11 8 7 9 11 11 12 13 14 14 14
28 26 25 22 20 20 20 18 13 8 5 5 5 6 6 6 6 7 7 8 9 10 10 11 11 11 11 10 10 11 11 10 8 8 10 12 12 13 14 14 14 14
30 28 27 25 22 22 22 18 13 9 7 6 7 7 7 7 7 7 8 8 9 10 11 12 12 12 11 11 11 11 11 10 8 9 11 12 12 14 14 14 14 15
32 30 29 27 25 24 23 18 13 10 9 8 8 8 9 8 8 8 9 9 9 10 11 12 13 13 12 12 12 11 11 10 9 9 10 12 13 14 14 14 15 16
33 31 31 30 28 26 23 18 13 11 10 10 10 10 10 9 8 8 9 10 10 11 11 12 13 13 13 13 12 11 10 10 10 10 11 12 13 14 15 15 15 17
34 33 33 31 29 28 23 18 14 13 12 12 11 11 10 10 9 9 9 11 11 12 12 12 13 14 14 13 13 12 10 10 10 11 11 12 13 14 15 16 16 18
Wind_Direction
111 109 107 105 103 101 99 96 92 89 86 83 79 74 69 63 57 52 49 45 43 40 38 37 34 32 33 31 32 34 30 28 25 19 19 16 4 4 4 1 1 356
112 110 109 107 104 101 98 95 92 90 87 83 79 73 66 59 53 47 44 41 38 36 34 32 30 30 31 30 33 35 30 25 20 13 12 9 2 358 356 355 356 353
114 112 110 108 105 102 99 96 93 89 85 81 77 71 64 56 50 44 39 38 36 34 33 32 32 33 33 34 36 31 23 20 14 9 5 1 358 354 351 351 352 353
117 114 111 108 106 103 99 96 93 89 86 81 76 68 59 52 47 42 38 37 38 38 36 36 37 37 36 38 35 26 18 14 12 13 7 355 352 352 351 352 351 353
119 115 112 109 106 103 101 98 95 92 88 81 74 65 56 51 45 42 39 40 42 42 41 40 40 39 37 36 34 27 21 13 11 14 5 350 351 351 348 349 349 350
123 119 116 112 109 106 103 101 97 93 87 80 71 62 54 49 46 43 41 42 44 44 43 41 39 37 35 34 30 25 22 15 7 4 354 345 347 347 347 347 345 346
128 124 120 116 112 110 106 103 101 96 90 80 71 61 53 48 44 42 41 42 44 44 42 39 36 33 31 30 28 23 20 11 358 353 348 344 343 344 347 347 344 342
132 128 124 120 117 115 113 111 108 102 93 82 70 56 48 45 41 40 41 43 44 44 42 37 33 31 29 28 26 21 11 360 353 350 346 343 343 344 346 345 342 340
138 134 132 130 128 127 124 120 116 105 90 77 65 51 44 41 39 39 41 43 44 42 39 35 31 29 26 25 24 18 6 353 349 347 343 343 343 343 343 342 340 337
148 145 143 140 138 135 132 126 116 102 87 72 60 48 41 37 35 38 40 42 42 39 37 34 30 27 25 24 22 14 0 349 346 345 342 341 339 339 339 337 336 332
156 152 150 148 146 144 139 133 118 105 91 75 62 44 36 34 34 36 41 42 39 37 36 31 27 25 25 23 18 9 358 348 345 341 337 336 334 334 332 329 327 323
162 159 158 158 158 155 150 145 131 121 110 91 66 37 31 33 35 38 43 43 38 34 33 30 27 24 23 22 14 3 355 345 340 337 333 332 328 325 323 319 317 317
170 167 167 167 168 167 164 160 155 153 157 156 73 33 33 34 38 43 40 35 33 32 30 27 24 22 22 21 7 356 350 340 336 334 329 326 320 316 315 314 313 314
177 176 176 176 176 176 175 174 176 183 188 191 159 31 29 30 31 36 35 27 26 26 25 22 21 22 23 15 359 351 344 334 330 326 323 319 314 311 311 312 312 311
183 182 182 183 183 183 184 186 191 195 197 197 176 18 19 20 21 25 26 21 19 18 17 20 21 19 18 11 358 347 339 331 324 319 317 313 311 311 311 310 310 308
188 187 187 189 189 188 190 195 201 203 202 208 318 7 6 9 10 15 16 11 11 11 13 19 20 13 11 10 358 345 338 330 321 315 312 310 310 311 309 308 307 304
192 192 194 195 194 192 195 203 209 208 205 211 264 346 352 357 357 0 4 0 2 5 8 15 15 5 3 6 356 345 338 329 319 313 308 305 306 305 304 304 304 303
195 196 198 199 197 195 201 209 211 206 201 207 225 299 331 343 343 344 350 353 356 359 359 4 5 359 360 1 349 340 337 329 317 308 304 302 303 302 301 302 303 303
198 198 201 202 200 201 208 212 209 203 201 209 232 284 315 326 330 335 341 345 348 350 348 352 355 354 356 356 344 335 335 329 314 303 301 299 300 302 300 302 304 304
201 201 203 205 204 207 211 211 207 203 203 214 247 280 301 312 321 328 332 335 338 340 338 340 345 347 351 352 342 334 332 326 312 301 300 299 299 301 301 301 302 303
203 203 205 206 206 209 212 210 207 204 208 228 253 271 286 298 308 314 318 322 327 329 329 330 335 340 345 346 340 334 331 325 312 301 302 301 300 299 300 299 300 302
205 204 206 206 206 209 212 210 207 206 214 233 250 264 277 289 298 305 309 313 317 320 321 323 328 333 337 339 338 336 333 325 312 306 305 303 300 300 299 298 299 302
206 205 207 207 206 209 212 210 208 211 219 233 246 257 269 282 291 297 302 305 308 312 315 317 320 326 330 333 335 337 335 325 313 308 307 303 300 299 299 299 300 301
208 208 209 208 208 210 212 210 210 215 224 231 239 248 259 272 283 290 296 300 303 306 308 311 315 319 323 328 332 336 335 325 314 308 305 301 299 299 300 301 301 300
210 210 211 210 210 212 213 213 214 219 224 228 233 242 252 265 279 287 292 296 300 303 304 308 311 314 318 323 328 333 334 327 316 309 302 299 300 302 303 303 302 301
212 212 213 212 213 214 215 215 217 220 222 225 231 240 250 264 277 285 289 293 297 301 303 306 307 309 313 319 324 329 332 326 316 307 302 301 301 303 305 306 305 303